Simultaneous Nadir Overpasses (SNOs) Predictions

Prediction of SNOs between GOES-16 and AQUA Satellite Orbit:

Table of predicted SNOs for the next 14.0 days since TLE Epoch: 1/14/2023
Index Date Time (GOES-16) GOES-16 Lat,Lon AQUA Lat,Lon Distance(km) Time Diff (sec)
1 01/14/2023 06:54:11 -0.05, -75.19 0.40, -77.20 229.56 80
2 01/16/2023 06:38:25 -0.04, -75.20 -0.30, -74.01 134.68 80
3 01/16/2023 18:59:35 0.04, -75.20 -0.77, -79.15 447.84 80
4 01/18/2023 06:25:18 -0.03, -75.21 -0.98, -70.82 499.33 80
5 01/18/2023 18:46:27 0.03, -75.21 -0.14, -75.94 83.02 80
6 01/20/2023 18:35:59 0.01, -75.22 0.54, -72.74 282.28 80
7 01/21/2023 06:57:00 -0.01, -75.22 0.55, -77.83 296.64 80
8 01/23/2023 06:41:11 -0.01, -75.24 -0.13, -74.62 69.65 80
9 01/25/2023 06:28:02 -0.02, -75.26 -0.84, -71.42 436.66 80
10 01/25/2023 18:49:11 0.02, -75.27 -0.22, -76.55 144.98 80
11 01/27/2023 18:38:40 0.02, -75.31 0.43, -73.34 224.02 80
